Temp
64 60 58 56 46 41 35 42 43 47 49 56 57 57 56 56 58 52 66 69 69 70 72 76 77 78 78 78 77 77 77 78 78 78 79 79 79 79 77 77 77 77 77 77 77 78 78 77 77
61 62 57 48 40 34 39 41 47 52 54 55 57 56 55 54 61 63 64 70 70 72 73 74 77 77 78 77 77 77 77 77 78 78 79 79 79 77 76 77 77 76 76 76 77 77 77 77 76
62 62 52 43 35 36 40 45 49 53 54 55 54 57 56 57 62 63 65 69 70 71 72 74 76 77 77 77 77 77 77 77 77 78 78 78 77 77 76 77 76 75 75 76 76 76 76 75 75
58 55 50 41 37 42 43 46 52 52 55 54 54 51 55 62 60 64 67 69 68 69 71 73 76 77 77 77 78 77 77 77 77 77 78 77 77 76 76 75 74 74 74 75 75 75 74 75 75
54 49 40 35 38 43 45 50 52 52 51 53 54 50 52 61 64 64 66 69 68 69 70 72 76 77 77 77 77 77 77 77 77 77 78 78 77 76 76 74 74 74 74 74 74 75 75 74 75
48 46 37 35 39 44 47 53 53 53 52 53 53 52 53 59 61 63 66 66 68 69 70 72 74 75 76 77 77 77 76 76 76 77 77 78 77 75 75 73 73 73 74 74 74 74 74 74 74
45 41 37 35 39 43 49 53 50 53 53 55 58 52 53 57 64 64 66 66 67 68 69 70 72 72 74 75 75 76 76 75 75 76 76 75 75 75 74 73 73 73 74 74 74 74 74 74 74
47 44 35 37 39 44 49 52 53 54 53 57 61 52 49 59 63 62 61 62 65 67 68 68 69 70 71 71 73 73 74 73 74 74 73 71 70 71 72 71 72 74 73 73 73 73 73 74 72
49 39 35 40 41 46 51 50 52 54 53 54 58 56 60 63 62 59 57 59 60 64 65 68 68 68 68 68 70 71 71 71 71 70 68 67 64 65 66 67 70 72 73 72 73 72 72 71 69
45 36 41 46 45 47 51 51 53 51 51 53 55 58 60 60 59 58 57 57 58 60 62 66 66 66 67 68 68 68 69 70 71 70 65 62 62 62 64 64 69 71 71 71 72 71 69 65 62
44 40 44 49 51 52 51 48 53 50 48 52 54 57 59 59 57 55 55 57 58 60 60 63 64 64 65 66 66 66 68 67 66 67 66 62 61 61 60 60 62 63 64 62 65 61 59 59 61
39 46 45 50 52 51 48 50 48 50 54 56 58 58 58 58 57 55 54 54 56 57 60 63 61 62 62 64 64 64 67 67 65 65 65 63 60 59 58 58 59 59 58 59 60 57 58 59 60
41 43 47 49 50 49 50 49 49 48 56 56 57 57 55 56 57 56 56 56 55 56 58 60 60 60 61 62 61 62 64 66 66 65 64 65 61 60 56 57 57 57 57 58 56 57 58 59 59
45 46 45 47 49 49 48 47 48 50 55 54 55 54 54 54 56 55 54 54 55 56 56 58 60 59 60 61 60 61 62 64 64 64 64 65 63 60 57 56 56 56 56 57 56 58 59 59 59
45 40 43 43 46 46 47 42 42 53 53 52 53 53 53 54 54 54 57 55 56 56 57 58 59 58 58 59 59 59 60 63 62 62 63 64 63 60 59 57 56 55 55 56 55 57 58 59 60
39 37 32 43 43 47 49 38 48 50 49 49 51 52 52 53 55 55 55 55 55 54 56 57 60 59 58 57 58 58 59 59 60 61 61 62 63 62 59 57 56 54 54 55 56 58 59 58 60
33 29 31 39 46 44 43 35 46 49 49 49 50 51 52 53 54 55 56 55 55 55 55 56 59 59 58 56 56 56 60 57 56 59 60 61 61 62 62 58 55 54 54 54 56 58 59 58 58
30 28 29 31 39 41 39 38 44 48 47 47 50 53 50 50 53 56 56 55 54 53 55 56 58 58 56 54 53 55 57 56 56 58 58 61 60 61 62 58 55 56 54 52 54 59 59 58 59
34 30 29 32 41 37 36 38 41 45 47 48 46 50 51 50 56 54 54 53 53 52 53 55 55 54 54 53 52 53 55 55 57 58 59 60 61 60 59 58 55 56 56 56 55 57 56 55 57
38 34 30 34 40 37 34 38 44 44 48 50 48 49 49 48 50 52 53 51 51 51 53 54 55 53 55 55 55 52 54 55 57 58 59 60 60 59 58 57 55 56 55 55 55 55 55 54 59
39 36 36 32 36 36 33 37 37 42 44 47 49 50 48 49 50 50 52 50 49 50 51 53 54 54 55 56 55 53 53 53 55 56 57 59 60 59 59 57 57 55 56 56 56 57 56 54 54
33 40 38 34 31 24 32 25 31 39 39 43 44 44 44 46 47 50 50 50 49 50 51 52 53 54 55 55 55 56 55 54 56 58 57 58 59 58 59 57 58 56 56 56 56 58 58 57 54
37 39 36 34 31 31 29 24 30 34 35 37 42 42 43 46 47 49 49 50 50 51 50 52 53 54 55 55 57 56 56 56 57 58 58 57 57 58 59 58 59 58 57 56 56 57 56 59 57
41 37 35 30 32 24 27 27 24 25 28 34 38 40 41 42 44 46 51 51 51 51 51 52 54 57 57 56 57 56 56 56 54 55 54 56 56 56 57 58 59 58 57 56 56 57 56 58 58
38 33 23 21 21 20 20 27 22 30 33 35 35 38 40 42 43 44 46 51 52 53 56 55 56 56 57 55 55 55 54 55 55 55 54 54 54 55 56 58 58 58 58 58 58 57 56 56 56
33 32 21 13 15 18 27 22 24 33 36 37 39 39 41 42 43 44 45 54 56 54 56 58 56 56 56 55 54 54 54 55 56 57 57 55 55 56 58 59 59 59 58 58 58 57 56 53 52
30 30 34 23 19 17 22 21 28 33 33 35 36 38 38 40 43 44 45 46 52 57 59 58 57 57 56 55 54 54 53 53 53 57 57 57 57 58 58 59 58 57 57 57 57 56 54 54 52
29 30 26 28 13 14 18 18 19 26 29 32 33 34 37 40 42 44 45 45 47 53 58 58 58 57 56 56 55 54 54 54 53 54 57 57 57 58 57 56 56 55 55 55 55 54 55 54 53
23 20 22 25 22 17 13 17 28 28 29 29 32 36 37 38 40 41 43 45 47 49 52 56 57 57 56 56 55 54 54 54 54 54 54 55 55 55 55 55 54 54 53 54 55 54 52 54 53
23 20 20 16 16 18 16 18 32 30 31 33 32 34 35 38 40 42 42 44 45 46 48 51 54 57 57 57 56 54 54 54 54 53 54 54 54 55 56 56 55 54 54 54 54 51 53 54 51
MSLP
1012.51 1012.60 1012.83 1013.44 1015.33 1016.20 1015.50 1014.47 1013.42 1012.76 1012.10 1011.03 1010.67 1010.65 1010.74 1010.61 1010.65 1011.20 1010.54 1010.70 1010.71 1010.92 1011.28 1011.54 1011.85 1012.27 1012.69 1013.19 1013.56 1013.91 1014.18 1014.49 1014.78 1015.06 1015.23 1015.45 1015.82 1016.15 1016.53 1017.01 1017.36 1017.63 1017.81 1017.93 1018.00 1018.03 1018.04 1018.32 1018.47
1012.62 1012.87 1013.45 1014.75 1015.94 1016.33 1014.92 1013.57 1012.80 1011.83 1011.13 1010.77 1010.71 1010.62 1010.74 1010.86 1010.53 1010.51 1010.54 1010.69 1010.81 1010.96 1011.24 1011.58 1011.88 1012.33 1012.70 1013.17 1013.61 1013.94 1014.26 1014.56 1014.87 1015.13 1015.41 1015.56 1015.92 1016.37 1016.80 1017.22 1017.63 1017.93 1018.15 1018.22 1018.27 1018.32 1018.47 1018.61 1018.90
1012.64 1013.02 1014.38 1015.40 1016.17 1015.62 1014.31 1012.97 1012.08 1011.37 1010.94 1010.70 1010.75 1010.66 1010.73 1010.85 1010.68 1010.49 1010.36 1010.60 1010.98 1011.22 1011.31 1011.62 1011.91 1012.32 1012.67 1013.06 1013.55 1013.92 1014.27 1014.65 1014.94 1015.23 1015.49 1015.74 1016.07 1016.55 1017.03 1017.36 1017.73 1018.12 1018.39 1018.53 1018.61 1018.75 1018.92 1019.13 1019.34
1013.09 1013.97 1015.51 1015.68 1015.79 1014.71 1013.68 1012.40 1011.82 1011.42 1010.93 1010.73 1010.75 1011.01 1010.98 1010.69 1010.74 1010.63 1010.57 1010.71 1011.03 1011.38 1011.50 1011.69 1011.91 1012.31 1012.77 1013.01 1013.40 1013.82 1014.23 1014.56 1014.91 1015.22 1015.46 1015.87 1016.25 1016.79 1017.24 1017.64 1017.97 1018.29 1018.63 1018.82 1018.95 1019.09 1019.33 1019.59 1019.71
1013.72 1014.82 1015.91 1016.09 1015.44 1014.24 1013.16 1012.25 1011.86 1011.58 1011.13 1010.92 1010.94 1011.15 1011.17 1010.88 1010.79 1010.74 1010.83 1010.91 1011.04 1011.44 1011.61 1011.83 1011.98 1012.30 1012.69 1013.04 1013.35 1013.78 1014.16 1014.51 1014.88 1015.14 1015.38 1015.96 1016.47 1016.99 1017.38 1017.88 1018.22 1018.50 1018.80 1019.07 1019.31 1019.42 1019.59 1019.84 1019.82
1014.54 1015.40 1016.35 1016.10 1015.00 1013.69 1012.75 1011.88 1011.74 1011.54 1011.24 1011.11 1011.21 1011.34 1011.31 1011.03 1010.90 1010.89 1010.99 1011.14 1011.23 1011.34 1011.58 1011.87 1012.08 1012.32 1012.60 1013.01 1013.28 1013.70 1014.14 1014.49 1014.80 1015.13 1015.43 1015.96 1016.61 1017.19 1017.57 1017.99 1018.30 1018.60 1018.94 1019.31 1019.59 1019.74 1019.92 1020.04 1020.13
1014.64 1015.59 1015.78 1015.41 1014.59 1013.53 1012.09 1011.43 1011.63 1011.36 1011.23 1011.10 1010.97 1011.36 1011.39 1011.24 1010.93 1010.97 1011.05 1011.20 1011.40 1011.43 1011.74 1011.86 1012.09 1012.43 1012.65 1012.99 1013.29 1013.62 1014.06 1014.46 1014.80 1015.04 1015.40 1015.98 1016.66 1017.17 1017.72 1018.13 1018.34 1018.60 1018.89 1019.45 1019.82 1019.99 1020.22 1020.33 1020.45
1014.55 1015.29 1015.62 1015.06 1014.32 1012.86 1011.60 1011.40 1010.97 1011.13 1011.07 1010.76 1010.71 1011.07 1011.19 1010.94 1010.99 1011.22 1011.31 1011.42 1011.51 1011.66 1011.83 1011.93 1012.11 1012.36 1012.68 1012.99 1013.26 1013.55 1013.94 1014.50 1014.91 1015.23 1015.58 1016.10 1016.71 1017.30 1017.80 1018.21 1018.39 1018.53 1018.97 1019.54 1019.86 1020.19 1020.51 1020.53 1020.83
1014.35 1015.42 1015.44 1014.36 1013.80 1012.21 1011.51 1011.42 1011.23 1010.94 1010.88 1010.84 1010.68 1010.78 1010.52 1010.64 1011.18 1011.55 1011.69 1011.77 1011.75 1011.78 1011.82 1011.88 1012.11 1012.25 1012.61 1012.94 1013.20 1013.46 1013.80 1014.51 1015.09 1015.51 1015.90 1016.44 1017.01 1017.52 1018.03 1018.27 1018.47 1018.69 1019.07 1019.58 1019.99 1020.29 1020.60 1020.94 1021.29
1014.46 1015.15 1013.83 1012.60 1012.26 1011.74 1011.35 1011.24 1011.23 1011.28 1011.23 1011.05 1010.80 1010.71 1010.62 1010.93 1011.47 1011.72 1011.90 1011.94 1011.94 1011.79 1011.65 1011.79 1012.00 1012.17 1012.39 1012.81 1013.12 1013.57 1013.98 1014.47 1014.99 1015.61 1016.16 1016.78 1017.28 1017.68 1018.11 1018.43 1018.51 1018.88 1019.23 1019.58 1019.95 1020.56 1020.99 1021.41 1021.84
1014.19 1013.98 1012.94 1012.11 1011.71 1011.45 1011.46 1011.48 1011.31 1011.37 1011.50 1010.61 1010.38 1010.69 1010.93 1011.12 1011.32 1011.73 1011.92 1011.88 1011.70 1011.40 1011.55 1011.60 1011.75 1011.91 1012.26 1012.67 1013.08 1013.59 1013.90 1014.52 1015.02 1015.49 1016.07 1016.72 1017.35 1017.72 1018.19 1018.53 1018.77 1019.06 1019.49 1019.66 1020.07 1020.87 1021.55 1021.81 1022.15
1014.07 1013.04 1012.89 1012.17 1011.78 1011.75 1011.79 1011.59 1011.44 1011.27 1010.13 1010.02 1010.08 1010.27 1010.65 1010.92 1011.13 1011.20 1011.58 1011.70 1011.60 1011.55 1011.42 1011.62 1011.77 1011.97 1012.26 1012.52 1012.91 1013.38 1013.78 1014.29 1014.81 1015.29 1015.84 1016.55 1017.35 1017.87 1018.15 1018.53 1018.92 1019.37 1019.88 1020.12 1020.22 1020.95 1021.65 1022.06 1022.36
1013.60 1012.82 1012.54 1012.30 1012.17 1012.10 1012.00 1011.81 1011.77 1011.08 1010.03 1010.25 1010.20 1010.36 1010.45 1010.65 1010.58 1010.39 1010.64 1010.81 1011.04 1011.19 1011.25 1011.40 1011.81 1011.90 1012.16 1012.50 1012.88 1013.27 1013.67 1014.08 1014.56 1015.13 1015.67 1016.09 1016.96 1017.78 1018.41 1018.56 1018.83 1019.47 1020.01 1020.35 1020.69 1021.00 1021.47 1022.14 1022.63
1012.61 1012.68 1012.49 1012.24 1012.22 1012.08 1011.96 1011.65 1011.77 1010.07 1009.67 1010.12 1010.00 1009.85 1009.94 1010.21 1010.12 1010.27 1010.24 1010.41 1010.62 1010.72 1010.91 1011.17 1011.58 1011.85 1011.98 1012.35 1012.66 1013.06 1013.36 1013.84 1014.43 1014.92 1015.39 1015.83 1016.44 1017.28 1018.20 1018.84 1019.21 1019.45 1020.04 1020.55 1020.76 1021.01 1021.44 1022.08 1022.76
1012.54 1012.90 1012.66 1012.21 1011.95 1011.97 1011.92 1011.52 1010.46 1009.29 1009.68 1009.72 1009.40 1009.40 1009.59 1009.51 1009.72 1009.70 1009.33 1009.55 1009.60 1009.89 1010.19 1010.74 1011.21 1011.63 1011.92 1012.21 1012.57 1012.84 1013.14 1013.51 1014.21 1014.76 1015.18 1015.69 1016.28 1017.07 1017.76 1018.56 1019.30 1019.86 1020.07 1020.50 1021.14 1021.31 1021.64 1022.09 1022.78
1012.86 1013.15 1012.95 1011.56 1011.52 1011.49 1011.52 1010.12 1009.33 1009.16 1009.55 1009.45 1009.20 1009.15 1009.20 1009.04 1008.95 1008.80 1008.69 1008.78 1008.96 1009.36 1009.65 1010.11 1010.65 1011.28 1011.75 1012.03 1012.43 1012.82 1013.17 1013.52 1013.89 1014.39 1014.92 1015.36 1016.02 1016.77 1017.48 1018.21 1019.04 1019.78 1020.41 1020.58 1021.01 1021.25 1021.80 1022.34 1022.82
1013.24 1013.06 1012.69 1011.88 1011.14 1011.22 1011.31 1010.27 1009.34 1009.15 1009.40 1009.45 1009.18 1008.84 1008.77 1008.52 1008.51 1008.11 1007.97 1007.96 1008.10 1008.49 1008.94 1009.55 1010.10 1010.70 1011.37 1011.97 1012.35 1012.83 1013.20 1013.73 1014.08 1014.39 1014.82 1015.34 1016.15 1016.49 1017.11 1017.83 1018.82 1019.55 1020.54 1020.82 1020.94 1021.30 1021.51 1022.38 1022.98
1012.38 1012.84 1012.55 1012.02 1011.48 1011.33 1011.26 1010.33 1009.79 1009.07 1009.16 1009.27 1009.04 1008.45 1008.09 1007.92 1007.51 1007.51 1007.44 1007.21 1007.41 1007.82 1008.37 1008.88 1009.43 1010.09 1011.04 1011.97 1012.59 1013.03 1013.59 1014.07 1014.34 1014.56 1014.84 1014.97 1015.47 1016.28 1017.05 1017.78 1018.91 1019.25 1020.21 1021.14 1021.05 1021.19 1021.71 1022.36 1022.86
1011.47 1012.19 1012.33 1012.12 1011.57 1011.62 1011.18 1010.45 1010.28 1009.98 1009.40 1008.91 1008.55 1008.14 1007.57 1007.25 1006.48 1006.82 1006.77 1006.70 1006.90 1007.40 1007.94 1008.46 1009.20 1009.91 1010.75 1011.76 1012.58 1013.16 1013.41 1013.77 1014.22 1014.52 1014.64 1014.99 1015.33 1015.46 1016.97 1017.98 1018.76 1019.35 1019.83 1020.47 1021.05 1021.39 1021.72 1022.67 1023.00
1011.43 1012.06 1012.39 1012.41 1011.91 1011.74 1011.41 1009.42 1009.77 1009.55 1008.43 1007.46 1007.28 1007.03 1006.99 1007.00 1006.60 1006.43 1006.28 1006.37 1006.49 1006.86 1007.46 1008.11 1008.67 1009.35 1009.96 1010.68 1011.39 1012.22 1012.68 1013.23 1013.43 1013.99 1014.52 1014.74 1015.03 1015.33 1015.89 1017.76 1018.83 1019.37 1019.87 1020.23 1020.84 1021.05 1021.78 1022.30 1022.83
1010.80 1011.37 1012.13 1012.60 1012.33 1011.95 1011.74 1008.99 1008.89 1008.19 1007.74 1007.04 1006.60 1006.51 1006.83 1006.75 1006.50 1006.18 1006.17 1006.08 1006.24 1006.55 1006.98 1007.56 1008.15 1008.79 1009.47 1010.15 1011.03 1011.90 1012.67 1013.14 1013.54 1013.98 1014.46 1014.77 1014.83 1015.07 1015.25 1017.06 1018.23 1019.39 1019.83 1019.68 1020.36 1020.87 1020.98 1021.48 1022.71
1010.24 1010.79 1011.82 1012.54 1013.10 1012.84 1012.09 1010.54 1009.90 1009.07 1008.60 1008.03 1007.39 1006.94 1006.68 1006.43 1006.19 1006.10 1005.85 1005.94 1005.91 1006.22 1006.72 1007.24 1007.83 1008.47 1009.15 1009.80 1010.40 1010.83 1011.11 1011.71 1011.78 1012.26 1013.19 1013.66 1014.19 1014.79 1014.59 1015.28 1018.26 1019.71 1019.45 1019.49 1019.85 1020.41 1020.87 1020.90 1021.99
1009.72 1010.42 1011.28 1012.00 1012.83 1013.15 1012.99 1013.26 1010.91 1010.16 1010.03 1009.69 1009.19 1008.51 1007.99 1007.43 1006.95 1006.45 1005.94 1005.82 1006.02 1006.33 1006.75 1007.16 1007.73 1008.41 1008.95 1009.43 1009.67 1010.06 1010.41 1010.49 1010.26 1011.44 1012.19 1013.12 1013.71 1013.92 1014.48 1014.90 1017.59 1018.70 1018.74 1019.12 1019.44 1020.06 1020.67 1020.89 1021.28
1009.73 1010.65 1011.44 1012.21 1012.97 1013.00 1012.63 1013.49 1012.85 1013.15 1013.29 1011.98 1011.09 1010.21 1009.41 1008.52 1007.69 1006.91 1006.30 1006.06 1006.20 1006.46 1006.72 1007.08 1007.60 1008.17 1008.62 1009.03 1009.44 1009.67 1009.96 1010.29 1010.61 1010.61 1010.89 1012.10 1012.90 1013.32 1014.18 1014.20 1016.03 1016.73 1017.84 1018.54 1019.06 1019.66 1020.37 1020.78 1021.06
1009.82 1010.72 1011.53 1012.32 1012.69 1012.40 1012.37 1013.46 1014.53 1014.44 1014.04 1013.43 1012.59 1011.60 1010.62 1009.58 1008.61 1007.78 1007.11 1006.53 1006.45 1006.48 1006.55 1007.11 1007.57 1007.95 1008.46 1008.88 1009.05 1009.24 1009.47 1009.46 1009.52 1009.87 1010.44 1011.23 1012.25 1012.53 1012.65 1013.58 1014.47 1015.67 1017.12 1017.80 1018.58 1019.33 1019.97 1020.46 1020.92
1010.01 1010.06 1010.27 1011.03 1011.84 1012.76 1013.29 1013.77 1014.59 1014.91 1014.63 1013.93 1013.09 1012.36 1011.34 1010.34 1009.68 1008.81 1008.07 1007.16 1006.73 1006.67 1006.62 1006.84 1007.23 1007.55 1007.92 1008.23 1008.54 1008.84 1009.02 1008.83 1008.75 1009.17 1009.91 1010.72 1011.42 1011.71 1012.29 1013.54 1013.92 1015.22 1016.43 1017.27 1018.09 1018.86 1019.60 1020.13 1020.78
1010.48 1010.01 1009.89 1010.81 1011.99 1012.71 1013.50 1014.75 1015.19 1015.25 1014.79 1013.84 1013.18 1012.63 1012.16 1011.55 1010.56 1009.83 1009.02 1008.20 1007.50 1006.79 1006.53 1006.65 1007.02 1007.27 1007.51 1007.90 1008.11 1008.61 1008.89 1008.73 1008.72 1008.96 1009.38 1009.96 1010.71 1010.87 1012.11 1012.71 1013.57 1014.85 1016.07 1016.72 1017.70 1018.41 1019.16 1019.84 1020.47
1011.73 1011.79 1011.33 1011.13 1012.22 1013.26 1013.95 1014.90 1015.79 1016.01 1015.73 1014.97 1014.07 1013.68 1013.12 1012.29 1011.59 1010.56 1009.94 1009.05 1008.10 1007.29 1006.64 1006.71 1006.91 1007.08 1007.30 1007.65 1007.83 1008.15 1008.69 1008.88 1009.01 1009.18 1009.19 1009.74 1010.27 1011.06 1011.94 1012.92 1013.47 1014.62 1015.75 1016.52 1017.20 1018.08 1018.75 1019.47 1020.04
1013.39 1013.44 1013.10 1012.44 1012.21 1012.47 1014.24 1016.04 1016.72 1016.89 1016.69 1016.12 1015.51 1014.98 1014.25 1013.41 1012.82 1011.94 1010.98 1010.07 1009.14 1008.28 1007.62 1007.03 1007.01 1007.13 1007.27 1007.48 1007.65 1007.90 1008.36 1008.81 1009.16 1009.44 1009.50 1009.88 1010.74 1011.39 1012.14 1012.75 1013.51 1014.52 1015.31 1016.04 1016.88 1017.65 1018.30 1018.94 1019.56
1015.94 1016.17 1015.54 1014.67 1014.58 1014.01 1013.96 1016.63 1017.05 1017.52 1017.42 1017.25 1016.99 1016.22 1015.60 1014.72 1013.84 1012.86 1011.99 1011.10 1010.07 1009.19 1008.65 1008.15 1007.47 1007.29 1007.30 1007.31 1007.57 1007.80 1007.95 1008.35 1009.11 1009.50 1009.61 1010.08 1010.69 1011.22 1011.54 1012.22 1013.07 1014.13 1014.94 1015.85 1016.52 1017.16 1017.75 1018.31 1018.92
Wind_Speed
3 4 3 6 6 5 3 7 2 3 3 3 3 3 4 1 3 4 3 8 4 9 8 10 17 17 18 16 16 15 14 16 16 16 17 16 15 14 14 13 10 11 10 11 12 13 15 16 16
2 2 5 3 6 2 6 4 6 6 3 2 3 2 2 1 1 1 0 6 6 10 9 8 18 18 18 17 17 16 15 15 15 15 15 14 16 15 15 12 11 9 9 10 11 12 14 15 15
3 4 5 5 4 6 5 5 5 2 2 1 3 3 4 3 1 1 1 8 7 8 7 7 18 18 18 18 18 17 16 15 15 15 12 15 16 14 13 12 12 10 9 10 11 12 13 13 13
2 5 5 4 5 7 5 3 4 3 2 1 2 2 1 2 1 2 3 7 8 6 6 8 16 18 18 18 15 18 15 16 14 15 15 14 15 14 13 11 12 11 9 10 11 12 13 12 9
4 3 3 0 5 6 5 3 6 5 1 3 2 3 3 2 4 1 4 6 8 6 6 6 14 16 17 19 18 18 15 15 17 15 15 14 14 12 12 11 11 11 10 11 11 12 14 11 13
4 4 3 4 5 5 5 6 6 5 2 1 1 4 4 3 4 2 5 5 4 7 6 7 11 14 15 15 18 18 16 15 15 16 14 14 13 12 12 12 12 12 11 11 11 12 13 12 14
6 4 4 3 4 5 6 6 6 7 5 5 3 6 3 2 6 1 5 6 5 5 5 6 7 9 12 13 15 15 16 16 16 17 16 16 14 14 13 13 14 14 13 12 12 13 12 12 14
6 4 2 5 4 7 4 5 3 7 7 1 5 5 4 5 7 3 3 3 5 5 5 6 5 6 6 7 12 14 15 14 14 14 13 13 12 13 14 12 12 13 13 12 11 12 10 13 14
3 3 4 6 8 6 5 4 2 0 3 3 5 5 4 5 7 3 2 1 1 4 6 5 6 6 6 6 9 12 16 14 11 10 11 11 5 8 9 7 11 12 14 13 11 13 10 14 13
4 5 11 8 6 5 5 4 7 4 2 4 4 3 1 6 6 7 6 7 5 5 6 8 6 6 6 4 6 6 7 8 9 7 8 5 6 6 6 5 11 13 14 13 14 13 10 9 4
6 8 4 4 5 5 5 2 4 7 7 8 10 7 7 6 7 8 7 7 9 7 2 7 7 6 7 5 4 3 4 5 5 10 9 8 5 4 4 3 3 5 8 4 7 7 4 6 5
3 8 4 3 4 3 3 1 4 8 11 6 11 5 6 10 10 10 10 9 7 7 8 7 5 6 6 4 5 5 5 6 6 8 11 8 5 5 5 4 5 5 3 4 6 4 5 6 6
5 3 4 7 7 5 2 8 7 7 17 7 8 8 10 9 11 9 9 8 8 7 8 8 6 7 7 8 6 6 6 6 7 8 10 9 8 6 4 4 5 5 4 4 5 6 6 6 6
4 5 5 4 5 6 5 5 8 11 14 10 12 15 12 11 14 8 8 9 9 8 9 8 10 7 8 8 8 7 6 7 7 7 9 11 9 8 5 4 4 6 4 4 5 6 7 6 6
1 4 5 7 6 7 6 9 14 18 7 9 12 9 9 12 7 13 12 10 11 11 9 12 13 9 9 9 7 7 7 8 8 7 10 11 10 9 8 6 5 4 4 7 5 5 6 7 5
2 1 2 1 7 6 11 11 6 5 8 11 10 7 8 10 10 11 10 10 8 7 10 11 11 12 10 10 8 6 6 6 7 8 8 10 10 11 9 8 6 6 4 5 6 7 7 7 7
2 5 8 7 9 4 8 4 5 2 3 7 8 9 8 10 9 10 10 10 9 11 9 12 13 15 13 8 6 6 7 3 3 5 8 10 9 10 10 8 6 8 4 4 6 6 9 8 6
10 7 4 5 1 3 5 12 9 10 4 9 12 14 9 9 14 9 12 9 9 9 9 11 11 13 11 7 5 4 4 3 3 5 6 13 12 10 8 7 8 9 7 4 3 9 6 8 9
7 3 3 3 3 3 7 11 8 9 12 15 12 16 14 12 12 8 9 8 8 7 10 12 13 12 11 8 7 4 7 5 5 4 8 11 11 14 9 5 7 7 10 10 6 6 11 5 8
13 7 7 5 7 2 6 22 15 10 16 21 18 16 13 6 9 9 8 6 7 8 10 11 13 14 13 10 8 4 6 5 7 7 7 10 12 13 12 8 7 8 8 9 8 8 5 4 8
18 20 14 6 5 4 4 20 5 6 7 8 11 13 6 10 12 9 6 7 6 8 10 12 13 14 13 11 7 4 4 3 5 7 8 9 12 15 15 11 6 7 8 10 11 10 10 8 3
19 9 11 9 4 5 1 10 6 7 10 7 9 8 8 9 7 6 5 4 7 5 6 7 8 11 10 11 10 13 9 8 10 11 11 12 16 15 16 16 9 9 8 10 10 9 8 8 10
8 9 14 8 8 2 4 2 8 5 9 20 16 14 12 10 9 8 4 4 4 6 6 7 9 10 9 12 12 11 10 9 8 11 15 13 13 16 16 17 15 12 9 9 10 10 9 8 9
8 5 4 3 4 9 10 8 4 5 9 12 15 16 14 14 13 10 5 3 4 5 6 6 8 11 11 13 12 11 10 12 11 12 12 13 12 12 14 16 18 13 11 11 10 10 9 9 9
8 11 4 4 6 5 3 9 2 5 9 8 11 15 15 13 14 13 12 5 3 4 6 7 8 8 9 10 10 10 10 10 15 15 11 13 11 10 13 15 14 12 13 13 11 10 9 8 9
11 7 6 9 6 5 2 6 2 4 7 7 8 10 15 19 14 14 13 10 3 3 5 6 8 8 10 9 7 6 3 6 10 14 11 10 11 11 15 17 15 15 13 12 12 9 8 6 6
7 8 5 6 3 5 5 4 3 6 11 15 16 16 17 17 17 15 14 12 12 5 4 5 6 8 7 8 7 7 2 4 3 12 13 10 9 9 11 13 14 13 12 13 12 9 9 9 7
4 4 6 4 7 5 3 4 4 11 14 15 17 16 15 16 17 17 15 13 12 11 4 2 4 7 6 7 8 9 6 6 5 4 11 11 8 10 12 11 12 13 12 13 13 8 10 11 8
5 5 4 4 1 7 6 4 5 5 8 11 12 14 14 15 14 13 13 12 12 12 12 7 2 4 6 7 7 8 9 8 6 5 6 7 8 12 13 12 12 12 12 11 11 10 11 12 10
15 6 5 4 2 3 3 6 9 13 13 14 15 17 17 17 15 13 12 12 14 14 12 11 9 2 5 7 8 8 8 9 9 6 4 6 6 6 10 12 12 11 11 11 11 10 10 13 11
Wind_Direction
24 57 79 45 68 64 249 251 248 211 221 205 126 150 153 102 157 197 311 179 151 151 167 169 156 153 151 152 146 146 146 142 147 143 140 140 139 131 118 112 122 119 125 126 130 129 122 115 112
56 108 45 77 95 109 257 232 212 218 208 117 135 115 109 121 245 167 49 175 147 152 163 167 157 157 156 153 151 149 151 145 151 141 147 141 134 126 119 129 124 122 125 128 130 122 124 125 118
108 48 86 103 127 190 219 210 195 196 356 187 119 48 138 158 237 225 305 151 140 154 159 167 162 160 159 156 155 154 156 154 156 155 153 136 129 126 126 136 125 124 127 128 131 131 135 126 119
87 18 35 99 216 250 216 197 194 138 357 32 94 107 314 261 232 324 131 137 139 148 154 172 167 172 167 165 166 156 168 165 170 165 147 141 132 131 128 139 129 128 133 131 133 140 125 119 133
43 57 75 253 250 261 248 244 170 185 193 196 155 199 205 303 308 150 153 146 147 147 152 170 173 176 173 173 165 163 170 173 168 155 142 143 136 139 151 144 135 135 141 141 138 146 133 128 124
55 98 83 226 238 248 259 220 162 183 182 208 116 148 237 292 318 131 155 161 153 155 154 168 181 178 174 179 168 170 172 172 162 152 149 152 152 153 157 149 145 142 150 145 146 147 136 136 130
122 105 212 226 246 289 227 147 175 178 170 231 162 155 255 269 240 268 179 165 160 153 155 170 181 190 181 180 178 172 171 172 168 156 147 152 163 161 159 156 153 154 146 149 151 152 140 146 132
110 99 176 231 199 258 210 173 166 151 220 336 172 199 225 220 188 157 79 164 177 179 179 185 187 180 187 190 186 176 164 167 165 155 150 142 142 149 157 160 164 150 148 149 153 150 154 150 132
132 83 229 235 164 234 168 157 186 165 141 211 201 162 238 163 140 127 119 42 185 211 201 181 190 186 179 187 196 181 157 158 156 148 137 132 131 136 148 168 154 146 152 153 159 141 144 125 122
131 164 217 206 192 207 183 166 170 149 217 255 264 237 274 144 161 182 191 202 209 215 211 196 188 191 168 171 184 172 160 162 158 146 132 123 132 139 153 175 155 148 149 155 153 128 112 98 88
181 213 218 243 216 161 178 196 193 158 234 205 210 208 205 201 219 203 223 222 206 216 199 194 190 180 173 163 148 163 151 156 145 146 150 140 142 146 146 150 145 134 140 144 119 106 98 110 105
199 248 196 287 219 155 179 179 232 187 237 197 225 204 198 214 222 219 210 217 222 207 218 199 193 166 167 150 148 141 152 165 159 165 151 151 150 156 156 141 139 123 125 126 119 116 119 107 106
223 244 206 237 288 279 277 236 227 237 254 243 250 238 228 223 235 241 226 221 213 212 211 196 181 177 159 151 144 145 151 164 171 163 166 157 157 160 153 146 131 129 125 132 123 125 125 114 109
214 231 264 281 239 237 230 251 160 240 251 221 244 239 233 224 233 246 241 231 218 207 202 188 188 177 158 162 155 151 148 149 168 171 169 164 159 155 150 142 140 132 135 132 132 137 132 121 122
197 296 300 223 210 239 164 271 230 240 225 230 242 243 233 238 221 228 236 223 213 213 190 186 184 170 168 161 154 153 153 153 160 169 163 162 158 161 152 144 144 140 138 126 115 115 119 121 114
200 145 261 244 169 239 138 250 268 248 192 237 261 256 239 251 236 237 236 231 210 189 187 179 177 177 172 168 162 155 156 152 157 158 156 156 164 164 156 149 148 136 137 133 141 144 134 128 130
270 237 214 319 193 124 189 246 254 54 153 279 281 278 253 256 253 248 240 227 219 202 182 182 176 180 177 165 154 150 158 129 120 146 159 158 160 159 162 156 144 139 138 148 149 146 145 135 119
195 217 207 203 157 150 240 255 286 299 290 262 277 277 267 256 253 239 250 233 223 195 182 177 181 175 162 146 125 107 136 129 145 163 173 168 159 159 164 144 150 149 142 152 163 144 132 139 126
114 146 163 217 206 7 257 268 259 251 268 266 250 259 261 253 270 231 252 244 216 191 171 168 164 167 154 153 151 154 182 179 173 182 185 183 172 153 150 152 150 162 167 168 163 137 134 117 127
235 257 249 262 278 167 282 283 282 236 247 245 239 245 251 265 279 268 257 239 195 177 173 167 175 167 172 171 172 153 165 192 186 186 194 191 175 163 143 147 172 174 167 153 169 162 148 109 166
224 237 245 240 329 266 294 286 297 288 276 285 262 257 256 241 264 266 264 233 186 184 173 172 171 170 176 170 149 113 110 102 172 189 195 198 182 167 151 148 171 177 182 172 175 176 172 150 155
228 207 230 222 187 243 145 290 333 314 318 315 312 277 250 260 255 255 245 203 192 177 141 143 155 166 172 167 172 185 190 179 200 195 196 186 180 176 158 142 185 190 184 180 179 180 182 157 164
220 166 189 186 193 219 216 334 271 329 350 338 356 10 7 354 327 320 231 199 162 142 143 142 145 161 171 182 190 193 206 220 186 196 183 183 181 175 179 161 184 186 185 185 176 176 186 181 166
168 131 114 98 145 239 182 165 308 10 322 342 354 359 358 1 3 3 14 96 123 125 132 143 157 191 192 193 207 208 215 227 202 194 176 183 178 179 184 172 186 173 184 178 180 178 184 183 176
177 159 189 182 201 219 184 167 79 321 350 349 353 356 355 7 13 11 7 9 78 148 153 159 186 203 201 200 198 204 227 232 198 177 175 174 179 181 173 176 177 169 185 180 178 178 181 180 180
200 203 172 183 187 148 270 205 96 339 333 348 11 8 7 9 12 16 8 10 11 184 204 194 175 183 195 196 184 162 215 227 192 183 170 181 179 183 171 179 172 172 177 173 175 178 180 158 166
172 207 171 106 50 91 168 63 240 7 9 12 14 13 9 359 1 13 13 9 1 342 266 196 174 202 199 191 162 160 137 127 124 174 176 176 181 162 169 171 166 163 170 170 171 175 176 175 171
39 22 180 187 143 188 186 118 100 13 7 1 7 7 359 360 354 0 8 13 4 357 352 249 196 193 182 180 180 172 158 124 121 110 167 162 152 156 161 163 157 160 168 168 172 171 180 181 184
21 26 340 296 15 153 142 117 105 51 12 4 359 358 357 355 352 347 351 360 11 12 10 359 284 183 175 183 182 171 169 152 138 125 127 127 149 154 159 158 153 159 165 171 178 175 171 184 182
58 34 17 311 26 19 98 121 144 32 21 21 11 1 356 356 350 350 347 354 5 13 8 2 0 290 199 190 178 173 170 168 169 171 119 115 134 148 155 156 155 165 168 173 180 172 180 187 185